Dewpoint
40 42 45 45 48 51 50 48 40 47 52 42 41 38 39 39 36 36 34 23 19 16 18 18 15 18 28 31 24 25 31 31 28 26 25 23 21 20 23 16 15 25 24 21
41 43 44 45 47 50 47 44 43 50 44 31 37 34 36 40 37 36 30 26 25 24 21 25 16 27 33 32 29 25 29 21 16 19 25 26 21 19 17 27 28 20 18 18
42 44 44 47 46 50 48 44 38 47 48 38 34 32 32 37 39 37 34 27 28 25 24 26 23 32 34 34 33 31 31 26 19 16 20 24 23 22 21 19 20 19 21 20
44 43 44 46 46 49 48 45 37 43 40 41 39 33 33 35 36 35 32 26 26 24 19 20 21 35 35 36 35 32 30 24 23 24 28 26 24 24 24 16 20 17 17 19
42 41 42 44 46 49 46 43 37 45 41 41 41 34 35 34 34 33 30 29 25 24 23 25 24 32 34 32 35 31 32 29 30 27 29 28 24 25 24 24 21 18 18 18
41 42 43 44 46 48 44 44 45 41 42 41 39 33 37 34 34 32 27 30 28 26 32 35 38 39 40 37 34 32 32 32 29 25 26 24 21 22 23 23 24 23 18 17
41 42 43 43 46 47 46 42 45 42 39 40 35 35 38 35 35 35 29 30 29 38 40 39 38 37 42 40 41 39 35 34 31 26 25 19 22 23 18 20 22 22 23 25
42 42 42 44 45 48 44 46 46 45 39 40 35 37 37 39 36 34 36 41 40 42 40 35 31 31 26 36 36 39 40 32 32 24 21 23 19 20 21 17 20 24 24 25
41 42 43 45 45 48 45 44 48 49 45 40 36 36 37 39 34 40 42 45 45 43 42 33 27 25 25 28 28 34 32 35 25 32 22 14 23 25 25 23 21 29 27 27
43 42 44 44 46 48 47 45 48 46 47 44 38 36 38 39 42 42 45 44 42 46 39 32 25 28 30 30 31 30 30 30 27 27 21 26 31 25 24 12 23 29 29 31
44 44 44 46 47 48 48 45 48 48 49 46 45 38 38 37 43 40 45 44 42 43 34 30 34 32 29 31 34 32 28 29 26 34 30 23 27 24 17 32 31 30 30 31
43 45 45 45 45 46 46 44 48 50 47 50 52 49 43 42 44 44 44 37 40 43 37 39 38 34 35 32 29 34 29 33 30 31 29 32 25 27 32 30 29 30 33 37
44 45 45 45 46 46 45 43 47 49 48 47 51 47 49 50 50 49 40 45 44 45 48 42 43 30 37 31 30 32 32 33 31 29 27 28 25 26 31 35 38 41 39 38
45 45 45 45 45 46 46 44 47 50 49 44 46 49 47 48 51 50 50 49 51 51 49 40 37 33 44 35 35 33 35 31 29 29 27 36 39 40 41 39 39 34 34 34
46 45 45 45 46 47 48 48 49 52 47 44 45 47 47 47 48 49 50 49 48 46 37 32 37 42 41 40 37 33 34 32 28 27 37 37 38 38 36 35 34 35 35 34
46 46 46 47 48 49 48 44 48 50 51 48 41 48 46 46 48 47 48 48 47 48 43 42 42 43 37 32 29 37 37 39 39 39 40 37 37 38 38 37 36 36 36 35
46 46 47 48 48 49 46 47 50 51 49 46 42 42 46 48 48 48 47 47 48 47 47 44 40 39 42 36 31 36 38 37 39 39 37 35 37 36 36 36 35 36 35 35
47 47 48 48 49 50 47 51 50 49 49 45 41 43 44 48 46 44 48 46 45 45 44 44 41 42 42 35 36 36 37 37 36 35 37 37 37 36 35 35 34 33 33 33
47 48 48 48 48 48 48 47 48 52 45 41 42 40 40 46 43 45 45 46 40 43 40 42 38 38 37 37 36 36 38 37 35 36 36 36 35 34 34 33 32 32 33 33
48 48 48 45 47 48 47 47 39 40 45 43 40 42 41 43 41 41 40 41 40 33 38 41 39 34 35 36 37 37 38 35 35 34 34 34 33 33 33 34 34 32 29 28
49 46 44 47 47 45 41 37 38 39 37 40 40 40 41 44 39 37 40 38 39 30 36 34 35 33 34 36 36 36 36 36 36 36 35 34 33 34 33 30 29 28 28 28
47 46 48 46 44 39 35 34 36 37 35 37 38 40 42 41 44 38 39 35 36 33 38 35 31 34 36 36 35 35 35 34 34 35 34 34 33 31 29 30 30 29 29 29
44 38 37 37 37 33 31 31 32 33 34 37 38 37 40 40 40 38 37 34 33 37 34 32 33 35 35 35 35 34 34 34 31 32 32 31 30 31 31 31 31 29 28 27
37 34 31 33 31 29 30 31 32 33 34 37 38 37 37 38 36 36 33 34 35 32 29 30 32 34 35 36 34 33 29 29 29 30 30 30 29 29 30 29 28 26 26 26
33 32 28 28 30 32 32 33 33 33 36 37 38 38 37 35 34 34 32 30 28 29 29 31 34 35 34 32 29 29 29 30 30 30 29 29 29 28 27 27 26 24 24 23
32 31 30 32 31 30 31 32 32 35 35 38 38 35 33 31 33 31 30 30 27 28 30 33 35 34 35 31 31 32 32 31 31 31 30 29 28 25 25 25 21 18 18 21
31 29 31 31 31 29 31 32 33 36 35 32 33 30 28 33 31 27 29 27 29 30 32 34 35 35 34 33 33 33 32 31 30 30 29 29 27 23 22 19 22 20 17 18
Wind_Speed
31 30 36 38 33 31 28 9 19 22 27 17 11 24 14 15 24 20 21 3 9 12 12 16 19 15 6 15 14 15 10 7 7 18 22 9 11 4 7 8 6 2 3 8
33 32 33 39 38 39 24 8 10 21 25 25 25 12 19 23 26 27 11 5 4 7 7 4 17 5 6 5 6 8 3 4 5 4 2 3 5 9 9 4 4 10 6 5
35 36 25 29 40 42 21 10 17 12 17 15 28 25 25 29 20 28 24 14 15 15 11 25 14 6 2 6 4 4 5 3 7 13 8 3 5 12 11 6 6 6 9 10
34 35 29 27 37 43 21 9 17 13 25 31 18 29 22 30 20 22 18 17 18 15 6 6 6 11 6 4 5 4 5 6 3 7 9 10 4 9 11 13 9 11 13 12
33 35 32 30 36 42 26 8 21 13 8 24 25 31 30 34 29 24 23 13 21 16 7 9 6 10 7 8 5 5 3 4 2 5 7 10 8 11 11 13 9 5 10 15
37 33 32 30 36 38 10 10 7 18 16 29 29 37 32 30 30 21 22 17 11 17 9 9 12 9 14 10 9 9 8 7 5 7 4 7 11 12 10 15 15 10 14 12
35 37 33 33 34 45 5 16 5 12 19 28 37 30 25 35 31 20 21 18 17 10 23 16 15 22 20 16 10 4 10 8 4 3 3 5 10 6 2 2 5 14 18 20
33 34 33 32 36 41 24 5 6 3 9 25 29 31 35 25 26 26 9 3 17 20 7 6 6 4 6 12 12 8 5 7 5 6 9 5 11 2 3 3 9 13 17 15
29 32 31 35 36 36 28 23 8 8 4 31 29 33 32 22 21 4 7 9 4 12 3 5 6 6 7 8 5 11 8 7 6 5 5 8 5 3 4 4 5 10 14 12
37 35 36 33 33 29 22 15 15 7 6 7 22 37 33 14 9 13 8 1 4 5 5 5 4 5 7 11 12 6 4 3 9 6 4 7 7 7 2 3 5 6 8 9
30 31 32 29 30 22 18 18 16 4 5 12 4 18 15 13 15 19 21 13 1 4 6 6 4 4 6 6 11 9 9 10 6 4 3 8 7 4 4 7 8 9 8 6
28 31 30 28 29 24 13 14 13 10 10 7 14 9 15 11 15 16 14 14 11 8 7 4 6 3 2 5 8 6 5 8 9 10 7 8 4 11 10 10 8 5 7 10
30 31 29 29 25 25 23 15 4 5 6 14 13 12 11 11 13 14 12 6 7 6 6 9 5 4 6 7 6 5 4 5 5 4 3 10 11 5 12 17 18 19 19 18
29 29 29 28 27 27 20 12 9 7 6 6 6 5 9 6 13 21 9 9 10 11 9 7 6 6 6 8 4 7 5 8 7 4 5 17 16 16 18 21 20 23 23 22
25 26 26 25 21 20 12 8 12 9 5 4 0 7 9 6 11 17 16 15 15 7 6 5 5 6 6 2 3 5 6 7 10 6 4 16 9 15 19 22 20 18 20 22
27 24 23 23 22 20 8 3 19 21 19 7 5 3 9 8 9 13 14 12 6 5 6 4 3 2 5 8 6 4 12 16 9 8 15 23 19 22 21 24 20 20 22 18
27 23 22 22 23 17 7 4 2 6 2 2 6 5 8 4 5 5 5 4 5 5 4 3 5 3 5 6 7 12 14 16 15 13 22 12 7 14 19 22 20 22 20 18
23 26 25 23 19 7 7 6 9 10 4 6 6 2 3 7 4 4 6 4 4 8 4 2 4 3 2 3 15 16 16 17 18 20 21 24 23 22 19 16 17 19 17 13
29 29 28 11 8 13 12 9 14 5 8 7 5 6 4 3 5 4 5 5 4 3 4 3 5 2 3 7 18 13 11 8 18 21 22 22 22 19 15 16 16 17 15 14
31 15 6 6 1 7 6 3 6 9 6 6 5 3 2 4 3 3 3 4 6 4 0 3 4 4 7 12 14 11 9 21 24 24 17 21 19 17 16 17 15 14 14 12
6 4 6 3 4 6 6 5 5 3 4 5 3 5 2 4 4 5 1 4 2 4 1 5 5 7 9 15 14 15 20 20 16 19 21 20 21 18 17 15 15 15 14 12
8 15 7 4 8 8 6 6 4 6 3 3 3 5 3 2 2 4 3 4 3 3 2 4 5 3 18 18 14 18 21 23 23 23 22 20 18 17 18 15 15 14 13 12
7 9 6 5 7 6 1 4 2 3 2 1 3 5 3 3 5 6 4 4 3 8 3 2 1 12 13 15 16 20 22 21 23 22 21 21 18 16 17 16 14 15 14 11
8 6 6 4 4 2 2 3 3 1 2 7 8 5 3 3 5 3 5 2 4 5 7 5 7 12 13 10 15 19 21 22 20 18 18 18 18 18 15 14 13 14 14 12
7 7 6 4 2 5 2 0 4 5 3 5 4 4 2 4 4 3 5 5 5 3 4 3 11 13 11 16 21 20 20 19 18 15 16 17 16 16 15 12 13 13 12 12
7 8 5 4 6 6 6 8 6 8 6 3 2 3 3 4 2 2 3 4 3 2 2 5 13 14 16 19 18 17 17 17 16 15 15 15 14 14 15 13 13 12 10 10
5 6 6 6 7 7 5 4 5 3 2 3 3 4 2 1 3 4 5 3 2 5 7 8 11 14 17 16 15 15 18 18 16 15 13 13 14 16 13 12 9 9 10 11
Wind_Direction
224 230 222 205 190 175 168 203 197 154 147 174 206 220 213 240 253 262 266 271 237 213 220 213 206 222 135 320 167 135 181 157 142 210 226 226 218 245 209 207 232 167 184 249
220 223 215 206 187 178 171 202 156 169 168 198 211 208 223 237 248 260 264 219 249 283 206 327 204 152 169 153 44 148 144 166 185 259 294 320 239 237 254 165 125 208 211 252
217 213 207 209 193 183 179 186 170 172 216 224 198 196 209 224 248 255 264 223 256 275 177 177 228 151 65 74 124 110 106 161 176 212 230 254 280 237 255 220 180 204 218 272
207 206 199 214 199 188 189 209 200 175 196 208 210 190 203 211 229 227 240 216 228 237 195 217 188 129 121 154 164 135 132 187 258 293 317 330 296 284 285 250 231 209 246 249
204 203 193 220 205 188 201 186 188 165 191 188 204 193 210 204 223 235 227 227 217 234 195 210 201 145 162 173 169 146 141 165 126 266 328 17 329 320 310 311 311 290 248 239
200 197 191 218 207 190 195 231 278 174 184 179 194 202 198 203 218 236 205 225 199 218 191 117 85 91 89 132 154 162 155 147 154 232 1 352 295 259 260 266 277 282 292 296
197 196 193 212 209 198 207 213 290 199 182 183 200 190 199 207 222 237 196 222 210 144 104 74 55 60 79 84 336 222 151 136 130 174 101 241 248 247 136 150 39 65 78 79
194 192 197 205 202 199 211 259 238 262 193 192 192 196 198 214 225 226 188 127 145 135 77 101 99 46 98 151 179 88 142 142 142 176 195 289 307 59 94 107 57 64 78 63
199 201 200 197 192 192 204 237 281 274 220 207 190 191 197 209 207 136 102 1 137 111 120 120 139 179 162 157 131 44 67 110 141 157 186 214 231 135 28 58 121 57 59 47
200 191 193 185 177 186 202 228 221 272 235 238 190 189 202 201 160 132 121 337 90 71 123 109 138 180 174 164 166 175 113 100 183 171 207 277 241 139 96 177 182 90 64 72
175 181 175 170 168 174 193 226 238 293 306 268 260 182 179 199 158 154 151 213 186 116 105 136 149 152 192 140 166 173 167 158 175 123 172 251 171 90 165 151 96 75 54 52
176 171 167 168 173 173 180 229 226 240 255 280 331 79 172 204 169 132 155 181 162 156 121 127 118 139 117 136 173 185 161 179 176 183 214 226 135 120 139 124 116 93 77 53
173 170 172 173 175 176 188 213 228 191 265 302 277 109 64 68 114 130 145 177 152 141 134 133 126 148 149 162 198 158 126 133 128 138 179 186 192 147 94 94 88 79 78 71
171 170 173 178 183 187 190 211 246 286 288 272 84 109 54 29 89 98 106 125 101 107 88 104 130 145 192 181 166 169 186 146 163 205 254 87 60 71 90 78 75 85 70 59
170 176 176 182 175 166 183 210 245 258 318 282 15 118 53 75 81 91 95 107 112 107 109 106 147 150 130 77 103 179 172 168 181 189 128 109 87 81 89 82 74 82 87 71
174 175 173 167 147 144 148 195 256 218 222 256 99 345 14 79 100 108 114 125 98 91 121 121 101 85 137 146 171 90 108 79 118 134 97 106 98 79 76 85 80 77 79 80
173 166 160 147 152 177 190 191 279 279 200 197 67 30 355 13 77 48 96 123 69 94 95 90 133 116 104 143 155 143 107 98 88 92 112 104 120 111 91 88 86 85 85 84
148 153 140 147 166 14 290 275 277 261 189 74 98 47 50 19 74 90 359 89 67 36 103 78 116 96 92 136 127 121 116 106 92 82 86 109 104 93 94 101 105 98 98 103
140 137 133 128 178 186 203 229 261 52 93 109 91 129 153 50 43 29 39 38 93 32 110 127 110 87 151 161 136 127 129 146 124 101 98 100 100 105 109 111 104 95 94 87
122 125 183 149 28 340 311 54 36 33 36 50 96 90 99 79 72 73 95 17 138 141 226 100 111 102 88 79 94 90 122 122 119 113 114 117 114 118 108 99 97 95 90 82
194 60 29 20 348 29 32 58 58 34 66 39 47 113 195 39 123 134 106 141 62 129 144 162 167 156 148 108 88 81 77 89 95 114 115 119 120 121 113 101 95 93 87 82
141 116 124 52 26 30 48 27 2 48 64 24 49 59 86 25 150 105 59 95 64 97 127 144 163 103 119 116 107 102 97 97 99 105 110 108 108 109 107 103 100 95 95 90
65 59 62 42 21 44 174 160 72 70 38 51 53 85 52 27 52 74 76 80 109 127 88 218 8 126 126 123 116 113 112 109 100 96 96 97 98 98 106 104 110 104 95 89
64 62 79 55 114 97 68 63 80 359 303 73 81 54 49 59 63 88 104 128 115 170 192 208 151 145 140 137 132 120 116 110 107 106 107 106 104 98 92 94 99 103 100 92
65 44 60 63 100 61 57 96 86 9 332 42 85 67 99 61 96 76 122 145 170 178 171 127 146 146 142 110 109 110 110 111 113 120 118 114 112 110 107 106 104 102 104 104
52 44 66 33 75 49 37 35 40 5 357 344 91 133 86 58 71 95 49 130 101 101 86 128 130 127 110 120 116 120 123 127 127 125 125 124 125 124 123 121 114 108 105 116
45 35 18 50 59 55 38 2 348 317 70 69 51 66 83 246 79 60 22 55 56 115 109 114 110 113 124 130 132 126 124 121 122 121 119 121 129 132 121 113 148 122 88 94